owner,sensor,date,latitude,longitude,vertical_datum,sea_water_practical_salinity,qcFlag 
NERRS,ioos:station:NOAA.NERRS:wkbfrwq:1,2016-06-01T00:45:00Z,30.4162,-87.8228,2.23,4.3,1111122 
NERRS,ioos:station:NOAA.NERRS:wkbfrwq:1,2016-06-01T01:45:00Z,30.4162,-87.8228,2.24,3.6,1111122 
NERRS,ioos:station:NOAA.NERRS:wkbfrwq:1,2016-06-01T02:45:00Z,30.4162,-87.8228,2.24,4.4,1111122 
NERRS,ioos:station:NOAA.NERRS:wkbfrwq:1,2016-06-01T03:45:00Z,30.4162,-87.8228,2.26,4.7,1111122 
NERRS,ioos:station:NOAA.NERRS:wkbfrwq:1,2016-06-01T04:45:00Z,30.4162,-87.8228,2.26,3.6,1111122 
NERRS,ioos:station:NOAA.NERRS:wkbfrwq:1,2016-06-01T05:45:00Z,30.4162,-87.8228,2.25,3.5,1111122 
NERRS,ioos:station:NOAA.NERRS:wkbfrwq:1,2016-06-01T06:45:00Z,30.4162,-87.8228,2.24,3.9,1111122 
NERRS,ioos:station:NOAA.NERRS:wkbfrwq:1,2016-06-01T08:45:00Z,30.4162,-87.8228,2.26,3.8,1111122 
NERRS,ioos:station:NOAA.NERRS:wkbfrwq:1,2016-06-01T09:45:00Z,30.4162,-87.8228,2.3,3.6,1111122 
NERRS,ioos:station:NOAA.NERRS:wkbfrwq:1,2016-06-01T10:45:00Z,30.4162,-87.8228,2.34,3.5,1111122 
NERRS,ioos:station:NOAA.NERRS:wkbfrwq:1,2016-06-01T11:45:00Z,30.4162,-87.8228,2.37,3.6,1111122 
NERRS,ioos:station:NOAA.NERRS:wkbfrwq:1,2016-06-01T13:45:00Z,30.4162,-87.8228,2.4,5.3,1111122 
NERRS,ioos:station:NOAA.NERRS:wkbfrwq:1,2016-06-01T14:45:00Z,30.4162,-87.8228,2.4,5.6,1111122 
NERRS,ioos:station:NOAA.NERRS:wkbfrwq:1,2016-06-01T15:45:00Z,30.4162,-87.8228,2.41,4.9,1111122 
NERRS,ioos:station:NOAA.NERRS:wkbfrwq:1,2016-06-01T16:45:00Z,30.4162,-87.8228,2.4,6.0,1111122 
NERRS,ioos:station:NOAA.NERRS:wkbfrwq:1,2016-06-01T17:45:00Z,30.4162,-87.8228,2.35,5.3,1111122 
NERRS,ioos:station:NOAA.NERRS:wkbfrwq:1,2016-06-01T18:45:00Z,30.4162,-87.8228,2.29,4.0,1111122 
NERRS,ioos:station:NOAA.NERRS:wkbfrwq:1,2016-06-01T19:45:00Z,30.4162,-87.8228,2.21,4.0,1111122 
NERRS,ioos:station:NOAA.NERRS:wkbfrwq:1,2016-06-01T20:45:00Z,30.4162,-87.8228,2.14,3.5,1111122 
NERRS,ioos:station:NOAA.NERRS:wkbfrwq:1,2016-06-01T21:45:00Z,30.4162,-87.8228,2.1,2.8,1111122 
NERRS,ioos:station:NOAA.NERRS:wkbfrwq:1,2016-06-01T22:45:00Z,30.4162,-87.8228,2.1,3.6,1111122 
NERRS,ioos:station:NOAA.NERRS:wkbfrwq:1,2016-06-01T23:45:00Z,30.4162,-87.8228,2.11,3.7,1111122 
NERRS,ioos:station:NOAA.NERRS:wkbfrwq:1,2016-06-02T00:45:00Z,30.4162,-87.8228,2.11,2.1,1111122 
NERRS,ioos:station:NOAA.NERRS:wkbfrwq:1,2016-06-02T01:45:00Z,30.4162,-87.8228,2.11,3.4,1111122 
NERRS,ioos:station:NOAA.NERRS:wkbfrwq:1,2016-06-02T03:45:00Z,30.4162,-87.8228,2.23,3.2,1111122 
NERRS,ioos:station:NOAA.NERRS:wkbfrwq:1,2016-06-02T04:45:00Z,30.4162,-87.8228,2.26,3.3,1111122 
NERRS,ioos:station:NOAA.NERRS:wkbfrwq:1,2016-06-02T05:45:00Z,30.4162,-87.8228,2.26,2.2,1111122 
NERRS,ioos:station:NOAA.NERRS:wkbfrwq:1,2016-06-02T07:45:00Z,30.4162,-87.8228,2.28,4.0,1111122 
NERRS,ioos:station:NOAA.NERRS:wkbfrwq:1,2016-06-02T08:45:00Z,30.4162,-87.8228,2.31,3.7,1111122 
NERRS,ioos:station:NOAA.NERRS:wkbfrwq:1,2016-06-02T09:45:00Z,30.4162,-87.8228,2.34,3.8,1111122 
NERRS,ioos:station:NOAA.NERRS:wkbfrwq:1,2016-06-02T11:45:00Z,30.4162,-87.8228,2.44,4.0,1111122 
NERRS,ioos:station:NOAA.NERRS:wkbfrwq:1,2016-06-02T12:45:00Z,30.4162,-87.8228,2.48,4.1,1111122 
NERRS,ioos:station:NOAA.NERRS:wkbfrwq:1,2016-06-02T13:45:00Z,30.4162,-87.8228,2.49,4.5,1111122 
NERRS,ioos:station:NOAA.NERRS:wkbfrwq:1,2016-06-02T14:45:00Z,30.4162,-87.8228,2.49,4.4,1111122 
NERRS,ioos:station:NOAA.NERRS:wkbfrwq:1,2016-06-02T15:45:00Z,30.4162,-87.8228,2.48,5.6,1111122 
NERRS,ioos:station:NOAA.NERRS:wkbfrwq:1,2016-06-02T16:45:00Z,30.4162,-87.8228,2.46,4.2,1111122 
NERRS,ioos:station:NOAA.NERRS:wkbfrwq:1,2016-06-02T17:45:00Z,30.4162,-87.8228,2.39,4.6,1111122 
NERRS,ioos:station:NOAA.NERRS:wkbfrwq:1,2016-06-02T18:45:00Z,30.4162,-87.8228,2.3,3.4,1111122 
NERRS,ioos:station:NOAA.NERRS:wkbfrwq:1,2016-06-02T19:45:00Z,30.4162,-87.8228,2.22,3.5,1111122 
NERRS,ioos:station:NOAA.NERRS:wkbfrwq:1,2016-06-02T20:45:00Z,30.4162,-87.8228,2.14,3.1,1111122 
NERRS,ioos:station:NOAA.NERRS:wkbfrwq:1,2016-06-02T21:45:00Z,30.4162,-87.8228,2.09,2.7,1111122 
NERRS,ioos:station:NOAA.NERRS:wkbfrwq:1,2016-06-02T22:45:00Z,30.4162,-87.8228,2.07,2.8,1111122 
NERRS,ioos:station:NOAA.NERRS:wkbfrwq:1,2016-06-02T23:45:00Z,30.4162,-87.8228,2.08,3.2,1111122 
NERRS,ioos:station:NOAA.NERRS:wkbfrwq:1,2016-06-03T00:45:00Z,30.4162,-87.8228,2.09,2.8,1111122 
NERRS,ioos:station:NOAA.NERRS:wkbfrwq:1,2016-06-03T01:45:00Z,30.4162,-87.8228,2.1,2.3,1111122 
NERRS,ioos:station:NOAA.NERRS:wkbfrwq:1,2016-06-03T02:45:00Z,30.4162,-87.8228,2.13,3.3,1111122 
NERRS,ioos:station:NOAA.NERRS:wkbfrwq:1,2016-06-03T04:45:00Z,30.4162,-87.8228,2.23,3.0,1111122 
NERRS,ioos:station:NOAA.NERRS:wkbfrwq:1,2016-06-03T05:45:00Z,30.4162,-87.8228,2.27,3.6,1111122 
NERRS,ioos:station:NOAA.NERRS:wkbfrwq:1,2016-06-03T06:45:00Z,30.4162,-87.8228,2.31,3.7,1111122 
NERRS,ioos:station:NOAA.NERRS:wkbfrwq:1,2016-06-03T07:45:00Z,30.4162,-87.8228,2.34,3.8,1111122 
NERRS,ioos:station:NOAA.NERRS:wkbfrwq:1,2016-06-03T09:45:00Z,30.4162,-87.8228,2.42,3.6,1111122 
NERRS,ioos:station:NOAA.NERRS:wkbfrwq:1,2016-06-03T11:45:00Z,30.4162,-87.8228,2.52,3.8,1111122 
NERRS,ioos:station:NOAA.NERRS:wkbfrwq:1,2016-06-03T12:45:00Z,30.4162,-87.8228,2.55,3.7,1111122 
NERRS,ioos:station:NOAA.NERRS:wkbfrwq:1,2016-06-03T13:45:00Z,30.4162,-87.8228,2.57,3.9,1111122 
NERRS,ioos:station:NOAA.NERRS:wkbfrwq:1,2016-06-03T14:45:00Z,30.4162,-87.8228,2.58,4.1,1111122 
NERRS,ioos:station:NOAA.NERRS:wkbfrwq:1,2016-06-03T15:45:00Z,30.4162,-87.8228,2.56,4.1,1111122 
NERRS,ioos:station:NOAA.NERRS:wkbfrwq:1,2016-06-03T16:45:00Z,30.4162,-87.8228,2.53,3.8,1111122 
NERRS,ioos:station:NOAA.NERRS:wkbfrwq:1,2016-06-03T17:45:00Z,30.4162,-87.8228,2.47,3.7,1111122 
NERRS,ioos:station:NOAA.NERRS:wkbfrwq:1,2016-06-03T18:45:00Z,30.4162,-87.8228,2.4,3.8,1111122 
NERRS,ioos:station:NOAA.NERRS:wkbfrwq:1,2016-06-03T19:45:00Z,30.4162,-87.8228,2.32,3.1,1111122 
NERRS,ioos:station:NOAA.NERRS:wkbfrwq:1,2016-06-03T20:45:00Z,30.4162,-87.8228,2.21,3.1,1111122 
NERRS,ioos:station:NOAA.NERRS:wkbfrwq:1,2016-06-03T21:45:00Z,30.4162,-87.8228,2.13,2.8,1111122 
NERRS,ioos:station:NOAA.NERRS:wkbfrwq:1,2016-06-03T22:45:00Z,30.4162,-87.8228,2.08,2.2,1111122 
NERRS,ioos:station:NOAA.NERRS:wkbfrwq:1,2016-06-03T23:45:00Z,30.4162,-87.8228,2.04,2.4,1111122 
NERRS,ioos:station:NOAA.NERRS:wkbfrwq:1,2016-06-04T00:45:00Z,30.4162,-87.8228,2.01,2.9,1111122 
NERRS,ioos:station:NOAA.NERRS:wkbfrwq:1,2016-06-04T01:45:00Z,30.4162,-87.8228,2.01,2.8,1111122 
NERRS,ioos:station:NOAA.NERRS:wkbfrwq:1,2016-06-04T02:45:00Z,30.4162,-87.8228,2.05,3.5,1111122 
NERRS,ioos:station:NOAA.NERRS:wkbfrwq:1,2016-06-04T03:45:00Z,30.4162,-87.8228,2.1,3.1,1111122 
NERRS,ioos:station:NOAA.NERRS:wkbfrwq:1,2016-06-04T04:45:00Z,30.4162,-87.8228,2.16,3.0,1111122 
NERRS,ioos:station:NOAA.NERRS:wkbfrwq:1,2016-06-04T05:45:00Z,30.4162,-87.8228,2.27,2.7,1111122 
NERRS,ioos:station:NOAA.NERRS:wkbfrwq:1,2016-06-04T06:45:00Z,30.4162,-87.8228,2.31,3.0,1111122 
NERRS,ioos:station:NOAA.NERRS:wkbfrwq:1,2016-06-04T07:45:00Z,30.4162,-87.8228,2.31,2.6,1111122 
NERRS,ioos:station:NOAA.NERRS:wkbfrwq:1,2016-06-04T08:45:00Z,30.4162,-87.8228,2.34,3.3,1111122 
NERRS,ioos:station:NOAA.NERRS:wkbfrwq:1,2016-06-04T09:45:00Z,30.4162,-87.8228,2.33,3.4,1111122 
NERRS,ioos:station:NOAA.NERRS:wkbfrwq:1,2016-06-04T10:45:00Z,30.4162,-87.8228,2.37,2.8,1111122 
NERRS,ioos:station:NOAA.NERRS:wkbfrwq:1,2016-06-04T11:45:00Z,30.4162,-87.8228,2.46,2.6,1111122 
NERRS,ioos:station:NOAA.NERRS:wkbfrwq:1,2016-06-04T12:45:00Z,30.4162,-87.8228,2.54,2.8,1111122 
NERRS,ioos:station:NOAA.NERRS:wkbfrwq:1,2016-06-04T13:45:00Z,30.4162,-87.8228,2.56,2.9,1111122 
NERRS,ioos:station:NOAA.NERRS:wkbfrwq:1,2016-06-04T14:45:00Z,30.4162,-87.8228,2.58,2.9,1111122 
NERRS,ioos:station:NOAA.NERRS:wkbfrwq:1,2016-06-04T15:45:00Z,30.4162,-87.8228,2.63,3.0,1111122 
NERRS,ioos:station:NOAA.NERRS:wkbfrwq:1,2016-06-04T16:45:00Z,30.4162,-87.8228,2.63,3.4,1111122 
NERRS,ioos:station:NOAA.NERRS:wkbfrwq:1,2016-06-04T17:45:00Z,30.4162,-87.8228,2.58,3.8,1111122 
NERRS,ioos:station:NOAA.NERRS:wkbfrwq:1,2016-06-04T18:45:00Z,30.4162,-87.8228,2.51,2.9,1111122 
NERRS,ioos:station:NOAA.NERRS:wkbfrwq:1,2016-06-04T19:45:00Z,30.4162,-87.8228,2.44,2.1,1111122 
NERRS,ioos:station:NOAA.NERRS:wkbfrwq:1,2016-06-04T20:45:00Z,30.4162,-87.8228,2.33,2.3,1111122 
NERRS,ioos:station:NOAA.NERRS:wkbfrwq:1,2016-06-04T21:45:00Z,30.4162,-87.8228,2.24,1.9,1111122 
NERRS,ioos:station:NOAA.NERRS:wkbfrwq:1,2016-06-04T22:45:00Z,30.4162,-87.8228,2.17,1.7,1111122 
NERRS,ioos:station:NOAA.NERRS:wkbfrwq:1,2016-06-04T23:45:00Z,30.4162,-87.8228,2.18,1.8,1111122 
NERRS,ioos:station:NOAA.NERRS:wkbfrwq:1,2016-06-05T00:45:00Z,30.4162,-87.8228,2.15,1.7,1111122 
NERRS,ioos:station:NOAA.NERRS:wkbfrwq:1,2016-06-05T01:45:00Z,30.4162,-87.8228,2.08,1.3,1111122 
NERRS,ioos:station:NOAA.NERRS:wkbfrwq:1,2016-06-05T02:45:00Z,30.4162,-87.8228,2.06,1.4,1111122 
NERRS,ioos:station:NOAA.NERRS:wkbfrwq:1,2016-06-05T03:45:00Z,30.4162,-87.8228,2.06,1.4,1111122 
NERRS,ioos:station:NOAA.NERRS:wkbfrwq:1,2016-06-05T04:45:00Z,30.4162,-87.8228,2.08,1.4,1111122 
NERRS,ioos:station:NOAA.NERRS:wkbfrwq:1,2016-06-05T05:45:00Z,30.4162,-87.8228,2.14,1.7,1111122 
NERRS,ioos:station:NOAA.NERRS:wkbfrwq:1,2016-06-05T06:45:00Z,30.4162,-87.8228,2.22,1.7,1111122 
NERRS,ioos:station:NOAA.NERRS:wkbfrwq:1,2016-06-05T07:45:00Z,30.4162,-87.8228,2.29,2.2,1111122 
NERRS,ioos:station:NOAA.NERRS:wkbfrwq:1,2016-06-05T08:45:00Z,30.4162,-87.8228,2.31,1.8,1111122 
NERRS,ioos:station:NOAA.NERRS:wkbfrwq:1,2016-06-05T09:45:00Z,30.4162,-87.8228,2.31,1.6,1111122 
NERRS,ioos:station:NOAA.NERRS:wkbfrwq:1,2016-06-05T10:45:00Z,30.4162,-87.8228,2.29,1.6,1111122 
NERRS,ioos:station:NOAA.NERRS:wkbfrwq:1,2016-06-05T11:45:00Z,30.4162,-87.8228,2.31,2.0,1111122 
NERRS,ioos:station:NOAA.NERRS:wkbfrwq:1,2016-06-05T12:45:00Z,30.4162,-87.8228,2.44,2.4,1111122 
NERRS,ioos:station:NOAA.NERRS:wkbfrwq:1,2016-06-05T13:45:00Z,30.4162,-87.8228,2.52,2.9,1111122 
NERRS,ioos:station:NOAA.NERRS:wkbfrwq:1,2016-06-05T14:45:00Z,30.4162,-87.8228,2.59,2.6,1111122 
NERRS,ioos:station:NOAA.NERRS:wkbfrwq:1,2016-06-05T15:45:00Z,30.4162,-87.8228,2.62,2.7,1111122 
NERRS,ioos:station:NOAA.NERRS:wkbfrwq:1,2016-06-05T16:45:00Z,30.4162,-87.8228,2.62,3.1,1111122 
NERRS,ioos:station:NOAA.NERRS:wkbfrwq:1,2016-06-05T17:45:00Z,30.4162,-87.8228,2.6,2.8,1111122 
NERRS,ioos:station:NOAA.NERRS:wkbfrwq:1,2016-06-05T18:45:00Z,30.4162,-87.8228,2.54,2.1,1111122 
NERRS,ioos:station:NOAA.NERRS:wkbfrwq:1,2016-06-05T19:45:00Z,30.4162,-87.8228,2.48,1.7,1111122 
NERRS,ioos:station:NOAA.NERRS:wkbfrwq:1,2016-06-05T20:45:00Z,30.4162,-87.8228,2.38,1.6,1111122 
NERRS,ioos:station:NOAA.NERRS:wkbfrwq:1,2016-06-05T21:45:00Z,30.4162,-87.8228,2.29,1.3,1111122 
NERRS,ioos:station:NOAA.NERRS:wkbfrwq:1,2016-06-05T22:45:00Z,30.4162,-87.8228,2.21,1.3,1111122 
NERRS,ioos:station:NOAA.NERRS:wkbfrwq:1,2016-06-05T23:45:00Z,30.4162,-87.8228,2.14,1.2,1111122 
NERRS,ioos:station:NOAA.NERRS:wkbfrwq:1,2016-06-06T00:45:00Z,30.4162,-87.8228,2.09,1.0,1111122 
NERRS,ioos:station:NOAA.NERRS:wkbfrwq:1,2016-06-06T01:45:00Z,30.4162,-87.8228,2.05,1.0,1111122 
NERRS,ioos:station:NOAA.NERRS:wkbfrwq:1,2016-06-06T02:45:00Z,30.4162,-87.8228,2.03,0.9,1111122 
NERRS,ioos:station:NOAA.NERRS:wkbfrwq:1,2016-06-06T03:45:00Z,30.4162,-87.8228,2.02,0.9,1111122 
NERRS,ioos:station:NOAA.NERRS:wkbfrwq:1,2016-06-06T04:45:00Z,30.4162,-87.8228,2.01,0.8,1111122 
NERRS,ioos:station:NOAA.NERRS:wkbfrwq:1,2016-06-06T05:45:00Z,30.4162,-87.8228,2.02,0.8,1111122 
NERRS,ioos:station:NOAA.NERRS:wkbfrwq:1,2016-06-06T06:45:00Z,30.4162,-87.8228,2.07,1.8,1111122 
NERRS,ioos:station:NOAA.NERRS:wkbfrwq:1,2016-06-06T07:45:00Z,30.4162,-87.8228,2.16,2.2,1111122 
NERRS,ioos:station:NOAA.NERRS:wkbfrwq:1,2016-06-06T08:45:00Z,30.4162,-87.8228,2.23,3.1,1111122 
NERRS,ioos:station:NOAA.NERRS:wkbfrwq:1,2016-06-06T09:45:00Z,30.4162,-87.8228,2.26,3.5,1111122 
NERRS,ioos:station:NOAA.NERRS:wkbfrwq:1,2016-06-06T10:45:00Z,30.4162,-87.8228,2.29,3.7,1111122 
NERRS,ioos:station:NOAA.NERRS:wkbfrwq:1,2016-06-06T11:45:00Z,30.4162,-87.8228,2.34,4.1,1111122 
NERRS,ioos:station:NOAA.NERRS:wkbfrwq:1,2016-06-06T12:45:00Z,30.4162,-87.8228,2.42,3.7,1111122 
NERRS,ioos:station:NOAA.NERRS:wkbfrwq:1,2016-06-06T13:45:00Z,30.4162,-87.8228,2.5,3.8,1111122 
NERRS,ioos:station:NOAA.NERRS:wkbfrwq:1,2016-06-06T14:45:00Z,30.4162,-87.8228,2.54,4.9,1111122 
NERRS,ioos:station:NOAA.NERRS:wkbfrwq:1,2016-06-06T15:45:00Z,30.4162,-87.8228,2.6,5.4,1111122 
NERRS,ioos:station:NOAA.NERRS:wkbfrwq:1,2016-06-06T16:45:00Z,30.4162,-87.8228,2.62,6.1,1111122 
NERRS,ioos:station:NOAA.NERRS:wkbfrwq:1,2016-06-06T17:45:00Z,30.4162,-87.8228,2.64,6.9,1111122 
NERRS,ioos:station:NOAA.NERRS:wkbfrwq:1,2016-06-06T18:45:00Z,30.4162,-87.8228,2.63,7.4,1111122 
NERRS,ioos:station:NOAA.NERRS:wkbfrwq:1,2016-06-06T19:45:00Z,30.4162,-87.8228,2.58,5.4,1111122 
NERRS,ioos:station:NOAA.NERRS:wkbfrwq:1,2016-06-06T21:45:00Z,30.4162,-87.8228,2.4,3.0,1111122 
NERRS,ioos:station:NOAA.NERRS:wkbfrwq:1,2016-06-06T22:45:00Z,30.4162,-87.8228,2.34,2.5,1111122 
NERRS,ioos:station:NOAA.NERRS:wkbfrwq:1,2016-06-06T23:45:00Z,30.4162,-87.8228,2.26,2.4,1111122 
NERRS,ioos:station:NOAA.NERRS:wkbfrwq:1,2016-06-07T00:45:00Z,30.4162,-87.8228,2.2,2.6,1111122 
NERRS,ioos:station:NOAA.NERRS:wkbfrwq:1,2016-06-07T01:45:00Z,30.4162,-87.8228,2.16,5.0,1111122 
NERRS,ioos:station:NOAA.NERRS:wkbfrwq:1,2016-06-07T02:45:00Z,30.4162,-87.8228,2.16,7.5,1111122 
NERRS,ioos:station:NOAA.NERRS:wkbfrwq:1,2016-06-07T03:45:00Z,30.4162,-87.8228,2.13,8.7,1111122 
NERRS,ioos:station:NOAA.NERRS:wkbfrwq:1,2016-06-07T04:45:00Z,30.4162,-87.8228,2.13,9.7,1111122 
NERRS,ioos:station:NOAA.NERRS:wkbfrwq:1,2016-06-07T05:45:00Z,30.4162,-87.8228,2.16,8.3,1111122 
NERRS,ioos:station:NOAA.NERRS:wkbfrwq:1,2016-06-07T06:45:00Z,30.4162,-87.8228,2.18,8.1,1111122 
NERRS,ioos:station:NOAA.NERRS:wkbfrwq:1,2016-06-07T07:45:00Z,30.4162,-87.8228,2.23,7.4,1111122 
NERRS,ioos:station:NOAA.NERRS:wkbfrwq:1,2016-06-07T08:45:00Z,30.4162,-87.8228,2.3,6.7,1111122 
NERRS,ioos:station:NOAA.NERRS:wkbfrwq:1,2016-06-07T09:45:00Z,30.4162,-87.8228,2.35,6.2,1111122 
NERRS,ioos:station:NOAA.NERRS:wkbfrwq:1,2016-06-07T10:45:00Z,30.4162,-87.8228,2.4,6.9,1111122 
NERRS,ioos:station:NOAA.NERRS:wkbfrwq:1,2016-06-07T11:45:00Z,30.4162,-87.8228,2.45,6.7,1111122 
NERRS,ioos:station:NOAA.NERRS:wkbfrwq:1,2016-06-07T12:45:00Z,30.4162,-87.8228,2.51,7.1,1111122 
NERRS,ioos:station:NOAA.NERRS:wkbfrwq:1,2016-06-07T13:45:00Z,30.4162,-87.8228,2.58,6.2,1111122 
NERRS,ioos:station:NOAA.NERRS:wkbfrwq:1,2016-06-07T14:45:00Z,30.4162,-87.8228,2.64,7.0,1111122 
NERRS,ioos:station:NOAA.NERRS:wkbfrwq:1,2016-06-07T15:45:00Z,30.4162,-87.8228,2.7,7.2,1111122 
NERRS,ioos:station:NOAA.NERRS:wkbfrwq:1,2016-06-07T16:45:00Z,30.4162,-87.8228,2.73,8.2,1111122 
NERRS,ioos:station:NOAA.NERRS:wkbfrwq:1,2016-06-07T17:45:00Z,30.4162,-87.8228,2.73,9.7,1111122 
NERRS,ioos:station:NOAA.NERRS:wkbfrwq:1,2016-06-07T18:45:00Z,30.4162,-87.8228,2.72,8.9,1111122 
NERRS,ioos:station:NOAA.NERRS:wkbfrwq:1,2016-06-07T19:45:00Z,30.4162,-87.8228,2.67,7.7,1111122 
NERRS,ioos:station:NOAA.NERRS:wkbfrwq:1,2016-06-07T20:45:00Z,30.4162,-87.8228,2.6,7.8,1111122 
NERRS,ioos:station:NOAA.NERRS:wkbfrwq:1,2016-06-07T21:45:00Z,30.4162,-87.8228,2.52,6.5,1111122 
NERRS,ioos:station:NOAA.NERRS:wkbfrwq:1,2016-06-07T22:45:00Z,30.4162,-87.8228,2.44,7.1,1111122 
NERRS,ioos:station:NOAA.NERRS:wkbfrwq:1,2016-06-07T23:45:00Z,30.4162,-87.8228,2.36,7.7,1111122 
NERRS,ioos:station:NOAA.NERRS:wkbfrwq:1,2016-06-08T00:45:00Z,30.4162,-87.8228,2.3,5.0,1111122 
NERRS,ioos:station:NOAA.NERRS:wkbfrwq:1,2016-06-08T01:45:00Z,30.4162,-87.8228,2.23,6.1,1111122 
NERRS,ioos:station:NOAA.NERRS:wkbfrwq:1,2016-06-08T02:45:00Z,30.4162,-87.8228,2.17,6.3,1111122 
NERRS,ioos:station:NOAA.NERRS:wkbfrwq:1,2016-06-08T03:45:00Z,30.4162,-87.8228,2.14,5.1,1111122 
NERRS,ioos:station:NOAA.NERRS:wkbfrwq:1,2016-06-08T04:45:00Z,30.4162,-87.8228,2.1,5.9,1111122 
NERRS,ioos:station:NOAA.NERRS:wkbfrwq:1,2016-06-08T05:45:00Z,30.4162,-87.8228,2.06,10.5,1111122 
NERRS,ioos:station:NOAA.NERRS:wkbfrwq:1,2016-06-08T06:45:00Z,30.4162,-87.8228,2.07,9.0,1111122 
NERRS,ioos:station:NOAA.NERRS:wkbfrwq:1,2016-06-08T07:45:00Z,30.4162,-87.8228,2.1,9.1,1111122 
NERRS,ioos:station:NOAA.NERRS:wkbfrwq:1,2016-06-08T08:45:00Z,30.4162,-87.8228,2.15,9.1,1111122 
NERRS,ioos:station:NOAA.NERRS:wkbfrwq:1,2016-06-08T09:45:00Z,30.4162,-87.8228,2.21,8.6,1111122 
NERRS,ioos:station:NOAA.NERRS:wkbfrwq:1,2016-06-08T10:45:00Z,30.4162,-87.8228,2.26,9.3,1111122 
NERRS,ioos:station:NOAA.NERRS:wkbfrwq:1,2016-06-08T11:45:00Z,30.4162,-87.8228,2.33,9.1,1111122 
NERRS,ioos:station:NOAA.NERRS:wkbfrwq:1,2016-06-08T12:45:00Z,30.4162,-87.8228,2.38,7.3,1111122 
NERRS,ioos:station:NOAA.NERRS:wkbfrwq:1,2016-06-08T13:45:00Z,30.4162,-87.8228,2.42,8.0,1111122 
NERRS,ioos:station:NOAA.NERRS:wkbfrwq:1,2016-06-08T14:45:00Z,30.4162,-87.8228,2.43,10.7,1111122 
NERRS,ioos:station:NOAA.NERRS:wkbfrwq:1,2016-06-08T15:45:00Z,30.4162,-87.8228,2.46,11.0,1111122 
NERRS,ioos:station:NOAA.NERRS:wkbfrwq:1,2016-06-08T16:45:00Z,30.4162,-87.8228,2.47,11.4,1111122 
NERRS,ioos:station:NOAA.NERRS:wkbfrwq:1,2016-06-08T17:45:00Z,30.4162,-87.8228,2.49,10.9,1111122 
NERRS,ioos:station:NOAA.NERRS:wkbfrwq:1,2016-06-08T18:45:00Z,30.4162,-87.8228,2.5,13.3,1111122 
NERRS,ioos:station:NOAA.NERRS:wkbfrwq:1,2016-06-08T19:45:00Z,30.4162,-87.8228,2.51,14.1,1111122 
NERRS,ioos:station:NOAA.NERRS:wkbfrwq:1,2016-06-08T20:45:00Z,30.4162,-87.8228,2.49,13.0,1111122 
NERRS,ioos:station:NOAA.NERRS:wkbfrwq:1,2016-06-08T21:45:00Z,30.4162,-87.8228,2.43,9.9,1111122 
NERRS,ioos:station:NOAA.NERRS:wkbfrwq:1,2016-06-08T22:45:00Z,30.4162,-87.8228,2.33,8.8,1111122 
NERRS,ioos:station:NOAA.NERRS:wkbfrwq:1,2016-06-08T23:45:00Z,30.4162,-87.8228,2.26,10.1,1111122 
NERRS,ioos:station:NOAA.NERRS:wkbfrwq:1,2016-06-09T00:45:00Z,30.4162,-87.8228,2.21,8.7,1111122 
NERRS,ioos:station:NOAA.NERRS:wkbfrwq:1,2016-06-09T01:45:00Z,30.4162,-87.8228,2.15,9.7,1111122 
NERRS,ioos:station:NOAA.NERRS:wkbfrwq:1,2016-06-09T02:45:00Z,30.4162,-87.8228,2.09,9.7,1111122 
NERRS,ioos:station:NOAA.NERRS:wkbfrwq:1,2016-06-09T03:45:00Z,30.4162,-87.8228,2.03,9.5,1111122 
NERRS,ioos:station:NOAA.NERRS:wkbfrwq:1,2016-06-09T04:45:00Z,30.4162,-87.8228,1.99,8.3,1111122 
NERRS,ioos:station:NOAA.NERRS:wkbfrwq:1,2016-06-09T05:45:00Z,30.4162,-87.8228,1.97,10.7,1111122 
NERRS,ioos:station:NOAA.NERRS:wkbfrwq:1,2016-06-09T06:45:00Z,30.4162,-87.8228,1.99,9.9,1111122 
NERRS,ioos:station:NOAA.NERRS:wkbfrwq:1,2016-06-09T07:45:00Z,30.4162,-87.8228,1.99,10.0,1111122 
NERRS,ioos:station:NOAA.NERRS:wkbfrwq:1,2016-06-09T08:45:00Z,30.4162,-87.8228,2.01,9.2,1111122 
NERRS,ioos:station:NOAA.NERRS:wkbfrwq:1,2016-06-09T09:45:00Z,30.4162,-87.8228,2.05,10.5,1111122 
NERRS,ioos:station:NOAA.NERRS:wkbfrwq:1,2016-06-09T10:45:00Z,30.4162,-87.8228,2.11,8.8,1111122 
NERRS,ioos:station:NOAA.NERRS:wkbfrwq:1,2016-06-09T11:45:00Z,30.4162,-87.8228,2.16,9.2,1111122 
NERRS,ioos:station:NOAA.NERRS:wkbfrwq:1,2016-06-09T12:45:00Z,30.4162,-87.8228,2.22,11.4,1111122 
NERRS,ioos:station:NOAA.NERRS:wkbfrwq:1,2016-06-09T13:45:00Z,30.4162,-87.8228,2.27,8.5,1111122 
NERRS,ioos:station:NOAA.NERRS:wkbfrwq:1,2016-06-09T14:45:00Z,30.4162,-87.8228,2.32,8.8,1111122 
NERRS,ioos:station:NOAA.NERRS:wkbfrwq:1,2016-06-09T15:45:00Z,30.4162,-87.8228,2.37,8.7,1111122 
NERRS,ioos:station:NOAA.NERRS:wkbfrwq:1,2016-06-09T16:45:00Z,30.4162,-87.8228,2.43,7.9,1111122 
NERRS,ioos:station:NOAA.NERRS:wkbfrwq:1,2016-06-09T17:45:00Z,30.4162,-87.8228,2.48,8.3,1111122 
NERRS,ioos:station:NOAA.NERRS:wkbfrwq:1,2016-06-09T18:45:00Z,30.4162,-87.8228,2.51,10.7,1111122 
NERRS,ioos:station:NOAA.NERRS:wkbfrwq:1,2016-06-09T19:45:00Z,30.4162,-87.8228,2.5,10.3,1111122 
NERRS,ioos:station:NOAA.NERRS:wkbfrwq:1,2016-06-09T20:45:00Z,30.4162,-87.8228,2.46,9.4,1111122 
NERRS,ioos:station:NOAA.NERRS:wkbfrwq:1,2016-06-09T21:45:00Z,30.4162,-87.8228,2.4,9.5,1111122 
NERRS,ioos:station:NOAA.NERRS:wkbfrwq:1,2016-06-09T22:45:00Z,30.4162,-87.8228,2.35,10.3,1111122 
NERRS,ioos:station:NOAA.NERRS:wkbfrwq:1,2016-06-09T23:45:00Z,30.4162,-87.8228,2.3,10.0,1111122 
NERRS,ioos:station:NOAA.NERRS:wkbfrwq:1,2016-06-10T00:45:00Z,30.4162,-87.8228,2.22,8.6,1111122 
NERRS,ioos:station:NOAA.NERRS:wkbfrwq:1,2016-06-10T01:45:00Z,30.4162,-87.8228,2.15,9.0,1111122 
NERRS,ioos:station:NOAA.NERRS:wkbfrwq:1,2016-06-10T02:45:00Z,30.4162,-87.8228,2.1,8.8,1111122 
NERRS,ioos:station:NOAA.NERRS:wkbfrwq:1,2016-06-10T03:45:00Z,30.4162,-87.8228,2.07,10.0,1111122 
NERRS,ioos:station:NOAA.NERRS:wkbfrwq:1,2016-06-10T04:45:00Z,30.4162,-87.8228,2.04,11.2,1111122 
NERRS,ioos:station:NOAA.NERRS:wkbfrwq:1,2016-06-10T05:45:00Z,30.4162,-87.8228,2.03,10.1,1111122 
NERRS,ioos:station:NOAA.NERRS:wkbfrwq:1,2016-06-10T06:45:00Z,30.4162,-87.8228,2.04,9.1,1111122 
NERRS,ioos:station:NOAA.NERRS:wkbfrwq:1,2016-06-10T07:45:00Z,30.4162,-87.8228,2.05,9.2,1111122 
NERRS,ioos:station:NOAA.NERRS:wkbfrwq:1,2016-06-10T08:45:00Z,30.4162,-87.8228,2.09,8.3,1111122 
NERRS,ioos:station:NOAA.NERRS:wkbfrwq:1,2016-06-10T09:45:00Z,30.4162,-87.8228,2.13,8.7,1111122 
NERRS,ioos:station:NOAA.NERRS:wkbfrwq:1,2016-06-10T10:45:00Z,30.4162,-87.8228,2.19,8.5,1111122 
NERRS,ioos:station:NOAA.NERRS:wkbfrwq:1,2016-06-10T11:45:00Z,30.4162,-87.8228,2.23,9.3,1111122 
NERRS,ioos:station:NOAA.NERRS:wkbfrwq:1,2016-06-10T12:45:00Z,30.4162,-87.8228,2.28,9.9,1111122 
NERRS,ioos:station:NOAA.NERRS:wkbfrwq:1,2016-06-10T13:45:00Z,30.4162,-87.8228,2.32,8.1,1111122 
NERRS,ioos:station:NOAA.NERRS:wkbfrwq:1,2016-06-10T14:45:00Z,30.4162,-87.8228,2.34,9.3,1111122 
NERRS,ioos:station:NOAA.NERRS:wkbfrwq:1,2016-06-10T15:45:00Z,30.4162,-87.8228,2.38,8.5,1111122 
NERRS,ioos:station:NOAA.NERRS:wkbfrwq:1,2016-06-10T16:45:00Z,30.4162,-87.8228,2.42,9.1,1111122 
NERRS,ioos:station:NOAA.NERRS:wkbfrwq:1,2016-06-10T17:45:00Z,30.4162,-87.8228,2.44,8.1,1111122 
NERRS,ioos:station:NOAA.NERRS:wkbfrwq:1,2016-06-10T18:45:00Z,30.4162,-87.8228,2.44,9.0,1111122 
NERRS,ioos:station:NOAA.NERRS:wkbfrwq:1,2016-06-10T19:45:00Z,30.4162,-87.8228,2.42,8.0,1111122 
NERRS,ioos:station:NOAA.NERRS:wkbfrwq:1,2016-06-10T20:45:00Z,30.4162,-87.8228,2.38,7.9,1111122 
NERRS,ioos:station:NOAA.NERRS:wkbfrwq:1,2016-06-10T21:45:00Z,30.4162,-87.8228,2.36,8.2,1111122 
NERRS,ioos:station:NOAA.NERRS:wkbfrwq:1,2016-06-10T22:45:00Z,30.4162,-87.8228,2.33,8.0,1111122 
NERRS,ioos:station:NOAA.NERRS:wkbfrwq:1,2016-06-10T23:45:00Z,30.4162,-87.8228,2.29,7.9,1111122 
NERRS,ioos:station:NOAA.NERRS:wkbfrwq:1,2016-06-11T00:45:00Z,30.4162,-87.8228,2.24,8.0,1111122 
NERRS,ioos:station:NOAA.NERRS:wkbfrwq:1,2016-06-11T01:45:00Z,30.4162,-87.8228,2.19,8.1,1111122 
NERRS,ioos:station:NOAA.NERRS:wkbfrwq:1,2016-06-11T02:45:00Z,30.4162,-87.8228,2.15,9.0,1111122 
NERRS,ioos:station:NOAA.NERRS:wkbfrwq:1,2016-06-11T03:45:00Z,30.4162,-87.8228,2.11,9.9,1111122 
NERRS,ioos:station:NOAA.NERRS:wkbfrwq:1,2016-06-11T04:45:00Z,30.4162,-87.8228,2.09,9.6,1111122 
NERRS,ioos:station:NOAA.NERRS:wkbfrwq:1,2016-06-11T05:45:00Z,30.4162,-87.8228,2.07,9.3,1111122 
NERRS,ioos:station:NOAA.NERRS:wkbfrwq:1,2016-06-11T06:45:00Z,30.4162,-87.8228,2.06,10.2,1111122 
NERRS,ioos:station:NOAA.NERRS:wkbfrwq:1,2016-06-11T07:45:00Z,30.4162,-87.8228,2.1,8.4,1111122 
NERRS,ioos:station:NOAA.NERRS:wkbfrwq:1,2016-06-11T08:45:00Z,30.4162,-87.8228,2.13,9.1,1111122 
NERRS,ioos:station:NOAA.NERRS:wkbfrwq:1,2016-06-11T09:45:00Z,30.4162,-87.8228,2.16,9.0,1111122 
NERRS,ioos:station:NOAA.NERRS:wkbfrwq:1,2016-06-11T10:45:00Z,30.4162,-87.8228,2.21,7.8,1111122 
NERRS,ioos:station:NOAA.NERRS:wkbfrwq:1,2016-06-11T11:45:00Z,30.4162,-87.8228,2.24,11.6,1111122 
NERRS,ioos:station:NOAA.NERRS:wkbfrwq:1,2016-06-11T12:45:00Z,30.4162,-87.8228,2.29,6.8,1111122 
NERRS,ioos:station:NOAA.NERRS:wkbfrwq:1,2016-06-11T13:45:00Z,30.4162,-87.8228,2.31,6.9,1111122 
NERRS,ioos:station:NOAA.NERRS:wkbfrwq:1,2016-06-11T14:45:00Z,30.4162,-87.8228,2.3,6.9,1111122 
NERRS,ioos:station:NOAA.NERRS:wkbfrwq:1,2016-06-11T15:45:00Z,30.4162,-87.8228,2.29,8.5,1111122 
NERRS,ioos:station:NOAA.NERRS:wkbfrwq:1,2016-06-11T16:45:00Z,30.4162,-87.8228,2.33,7.8,1111122 
NERRS,ioos:station:NOAA.NERRS:wkbfrwq:1,2016-06-11T17:45:00Z,30.4162,-87.8228,2.33,8.3,1111122 